Location: Cueva de Ratón
(10.1013°N, 67.6606°W)
Time: 13:18:57
(UTC+00:00)

BLOCK DM-SL R/B - Pass Details

Date: 02 December 2023
Orbit: 700 x 35714 km, 6.0° (Epoch: 26 February)

Event Time Altitude Azimuth Distance (km) Brightness Sun altitude
Rises 22:51:06 0° 250° (WSW) 3,868 8.9 -10.9°
Reaches altitude 10° 22:54:13 10° 239° (WSW) 2,355 7.0 -11.6°
Maximum altitude 22:58:04 32° 172° (S) 1,187 4.1 -12.5°
Enters shadow 23:02:19 10° 107° (ESE) 2,609 5.3 -13.5°
